BAW119 EGLL-VOBL

Flight info

Callsign BAW119
Flight time N/A
Altitude 35000
Route DET L6 DVR UL9 KONAN DCT KOK DCT KOMOB DCT PITES DCT BANUX DCT VEKIR DCT ERKIR DCT BERTA DCT PIXAL DCT OKSIG DCT AKIKA DCT ENFAR DCT BITLA DCT AKINA DCT VANZA/N0485F370 DCT RASDA A16 CVO L315 HGD M872 PMA Y214 RAPMA DCT ULONO DCT DAPOL/N0486F390 L692 GISKA N569 UMILA L883 REXOD N563 GUNIM GUNIM7F
Aircraft B772/H-SDE2E3FGHIJ5LORVWXY/LB1D1

Departure

Time 2026-04-28 21:10
Airport London Heathrow Airport (EGLL)

Arrival

Time N/A
Airport Kempegowda International Airport Bengaluru (VOBL)
Time Latitude Longitude Altitude Speed Heading
2026-04-28 20:40 51.47314 -0.48234 91 ft 0 kts 90°
2026-04-28 20:58 51.47314 -0.48237 91 ft 1 kts 90°
2026-04-28 20:58 51.47314 -0.48263 91 ft 3 kts 90°
2026-04-28 20:58 51.47314 -0.48295 91 ft 2 kts 90°
2026-04-28 20:59 51.47314 -0.48320 91 ft 3 kts 100°
2026-04-28 20:59 51.47318 -0.48345 90 ft 3 kts 131°
2026-04-28 20:59 51.47328 -0.48359 94 ft 3 kts 167°
2026-04-28 20:59 51.47348 -0.48362 91 ft 3 kts 180°
2026-04-28 21:00 51.47360 -0.48362 92 ft 0 kts 180°
2026-04-28 21:03 51.47359 -0.48362 91 ft 2 kts 180°
2026-04-28 21:03 51.47322 -0.48361 91 ft 9 kts 180°
2026-04-28 21:04 51.47254 -0.48361 91 ft 10 kts 180°
2026-04-28 21:04 51.47185 -0.48360 91 ft 10 kts 180°
2026-04-28 21:04 51.47115 -0.48360 91 ft 10 kts 180°
2026-04-28 21:04 51.47046 -0.48359 91 ft 10 kts 180°
2026-04-28 21:05 51.46976 -0.48359 94 ft 10 kts 180°
2026-04-28 21:05 51.46907 -0.48358 94 ft 10 kts 180°
2026-04-28 21:05 51.46852 -0.48357 94 ft 3 kts 180°
2026-04-28 21:05 51.46841 -0.48357 94 ft 1 kts 179°
2026-04-28 21:06 51.46840 -0.48357 94 ft 1 kts 179°
2026-04-28 21:06 51.46806 -0.48356 94 ft 7 kts 179°
2026-04-28 21:06 51.46759 -0.48383 95 ft 7 kts 223°
2026-04-28 21:07 51.46743 -0.48460 92 ft 7 kts 264°
2026-04-28 21:07 51.46741 -0.48547 91 ft 10 kts 268°
2026-04-28 21:07 51.46737 -0.48681 91 ft 13 kts 262°
2026-04-28 21:07 51.46672 -0.48749 95 ft 9 kts 182°
2026-04-28 21:08 51.46617 -0.48761 95 ft 5 kts 197°
2026-04-28 21:08 51.46603 -0.48770 94 ft 1 kts 200°
2026-04-28 21:08 51.46590 -0.48776 95 ft 4 kts 197°
2026-04-28 21:08 51.46538 -0.48785 91 ft 10 kts 174°
2026-04-28 21:09 51.46485 -0.48725 96 ft 10 kts 115°
2026-04-28 21:09 51.46478 -0.48540 92 ft 33 kts 90°
2026-04-28 21:09 51.46480 -0.47816 91 ft 96 kts 90°
2026-04-28 21:09 51.46486 -0.46453 98 ft 150 kts 89°
2026-04-28 21:10 51.46476 -0.44666 442 ft 163 kts 90°
2026-04-28 21:10 51.46304 -0.42835 1047 ft 171 kts 104°
2026-04-28 21:10 51.45788 -0.41178 1852 ft 160 kts 110°
2026-04-28 21:10 51.45238 -0.39616 2314 ft 162 kts 111°
2026-04-28 21:11 51.44759 -0.37946 2635 ft 166 kts 102°
2026-04-28 21:11 51.44485 -0.36177 3201 ft 159 kts 96°
2026-04-28 21:11 51.44378 -0.34480 3782 ft 150 kts 92°
2026-04-28 21:11 51.44027 -0.32799 3892 ft 168 kts 111°
2026-04-28 21:12 51.43525 -0.31005 3993 ft 185 kts 107°
2026-04-28 21:12 51.43040 -0.29023 4150 ft 201 kts 108°
2026-04-28 21:12 51.42585 -0.26815 4298 ft 217 kts 101°
2026-04-28 21:12 51.42229 -0.24342 4617 ft 231 kts 100°
2026-04-28 21:13 51.41885 -0.21825 5064 ft 238 kts 100°
2026-04-28 21:13 51.41526 -0.19206 5617 ft 241 kts 100°
2026-04-28 21:13 51.41165 -0.16577 6249 ft 241 kts 101°
2026-04-28 21:13 51.40803 -0.13945 6860 ft 243 kts 101°
2026-04-28 21:14 51.40437 -0.11286 7375 ft 246 kts 101°
2026-04-28 21:14 51.40065 -0.08586 7875 ft 250 kts 101°
2026-04-28 21:14 51.39687 -0.05857 8388 ft 253 kts 101°
2026-04-28 21:14 51.39304 -0.03092 8896 ft 256 kts 101°
2026-04-28 21:15 51.38917 -0.00298 9411 ft 258 kts 102°
2026-04-28 21:15 51.38523 0.02528 9921 ft 262 kts 102°
2026-04-28 21:15 51.38123 0.05392 10382 ft 265 kts 102°
2026-04-28 21:15 51.37713 0.08332 10589 ft 280 kts 102°
2026-04-28 21:16 51.37271 0.11492 10734 ft 299 kts 102°
2026-04-28 21:16 51.36802 0.14834 10874 ft 318 kts 102°
2026-04-28 21:16 51.36301 0.18399 11070 ft 337 kts 102°
2026-04-28 21:16 51.35776 0.22113 11540 ft 347 kts 102°
2026-04-28 21:17 51.35238 0.25913 12199 ft 353 kts 102°
2026-04-28 21:17 51.34693 0.29755 13045 ft 356 kts 103°
2026-04-28 21:17 51.34143 0.33631 14112 ft 358 kts 103°
2026-04-28 21:17 51.33594 0.37489 14880 ft 362 kts 103°
2026-04-28 21:18 51.33031 0.41436 15652 ft 366 kts 103°
2026-04-28 21:18 51.32458 0.45435 16451 ft 370 kts 102°
2026-04-28 21:18 51.31881 0.49459 17229 ft 374 kts 102°
2026-04-28 21:18 51.31292 0.53540 17988 ft 378 kts 102°
2026-04-28 21:19 51.30696 0.57660 18746 ft 383 kts 102°
2026-04-28 21:19 51.30067 0.61813 19411 ft 386 kts 104°
2026-04-28 21:19 51.29591 0.64568 19881 ft 388 kts 105°
2026-04-28 21:19 51.28828 0.68714 20608 ft 391 kts 105°
2026-04-28 21:20 51.28044 0.72887 21314 ft 394 kts 105°
2026-04-28 21:20 51.27255 0.77088 21974 ft 397 kts 105°
2026-04-28 21:20 51.26464 0.81330 22615 ft 400 kts 105°
2026-04-28 21:20 51.25670 0.85611 23222 ft 404 kts 105°
2026-04-28 21:21 51.24873 0.89926 23744 ft 407 kts 105°
2026-04-28 21:21 51.24069 0.94280 24247 ft 410 kts 104°
2026-04-28 21:21 51.23259 0.98664 24738 ft 413 kts 104°
2026-04-28 21:21 51.22442 1.03070 25234 ft 415 kts 104°
2026-04-28 21:22 51.21631 1.07441 25684 ft 418 kts 104°
2026-04-28 21:22 51.20800 1.11907 26121 ft 421 kts 104°
2026-04-28 21:22 51.19963 1.16390 26552 ft 423 kts 104°
2026-04-28 21:22 51.19119 1.20906 26971 ft 426 kts 104°
2026-04-28 21:23 51.18270 1.25444 27368 ft 428 kts 104°
2026-04-28 21:23 51.17411 1.30010 27747 ft 431 kts 104°
2026-04-28 21:23 51.16634 1.34632 28115 ft 433 kts 101°
2026-04-28 21:23 51.16106 1.39350 28450 ft 434 kts 96°
2026-04-28 21:24 51.15853 1.44152 28775 ft 436 kts 93°
2026-04-28 21:24 51.15645 1.48984 29078 ft 438 kts 93°
2026-04-28 21:24 51.15426 1.53819 29362 ft 440 kts 93°
2026-04-28 21:24 51.15196 1.58693 29629 ft 442 kts 93°
2026-04-28 21:25 51.14958 1.63586 29885 ft 444 kts 94°
2026-04-28 21:25 51.14714 1.68503 30109 ft 446 kts 94°
2026-04-28 21:25 51.14470 1.73361 30361 ft 447 kts 94°
2026-04-28 21:25 51.14217 1.78354 30611 ft 447 kts 94°
2026-04-28 21:26 51.13969 1.83224 30854 ft 447 kts 94°
2026-04-28 21:26 51.13716 1.88156 31087 ft 447 kts 94°
2026-04-28 21:26 51.13462 1.93086 31316 ft 448 kts 94°
2026-04-28 21:26 51.13204 1.98032 31549 ft 448 kts 94°
2026-04-28 21:27 51.12943 2.02982 31777 ft 448 kts 94°